Date_and_time,latitude,longitude,wind_speed,RelWindDirFrom,WindDirFrom,air_pressure,air_temperature,relative_humidity,Temp,platform_speed_wrt_ground,air_pressure_at_mean_sea_level,platform_orientation
2018-11-23 23:50,50.63045,-96.9807766666667,13.3,16.5,360,972.30,-0.9,101,1.00,0.0,999.80,90.0
2018-11-24 00:00,50.63045,-96.9807733333333,11.0,17.4,345,972.48,-1.0,101,0.99,0.0,999.98,360.0
2018-11-24 00:00,50.63045,-96.9807733333333,11.9,12.3,342,972.55,-1.2,101,0.99,0.0,1000.06,360.0
2018-11-24 00:10,50.6304533333333,-96.9807816666667,12.5,16.6,349,972.59,-1.4,101,0.99,0.0,1000.11,360.0
2018-11-24 00:20,50.63045,-96.9807766666667,10.7,14.1,341,972.75,-1.6,101,1.00,0.0,1000.28,360.0
2018-11-24 00:30,50.6304516666667,-96.9807716666667,9.6,14.2,337,972.86,-1.8,100,1.00,0.0,1000.40,360.0
2018-11-24 00:40,50.6304533333333,-96.9807733333333,10.5,15.4,347,972.94,-2.0,100,0.99,0.0,1000.49,360.0
2018-11-24 00:50,50.630455,-96.9807733333333,9.4,16.8,328,973.06,-2.2,100,0.97,0.0,1000.62,360.0
2018-11-24 01:00,50.6304516666667,-96.9807716666667,8.8,14.7,325,973.19,-2.5,100,0.98,0.0,1000.77,360.0
2018-11-24 01:10,50.63045,-96.9807666666667,9.4,13.9,326,973.27,-2.7,99,0.97,0.0,1000.86,360.0
2018-11-24 01:20,50.63045,-96.9807666666667,9.7,13.6,333,973.46,-2.8,100,0.97,0.0,1001.08,360.0
2018-11-24 01:30,50.6304483333333,-96.9807633333333,8.8,12.8,324,973.65,-3.0,100,0.96,0.0,1001.31,360.0
2018-11-24 01:40,50.6304433333333,-96.9807666666667,10.5,13.4,342,973.78,-3.1,100,0.97,0.0,1001.46,360.0
2018-11-24 01:50,50.6304516666667,-96.9807533333333,10.4,14.2,344,973.86,-3.3,100,0.99,0.0,1001.55,360.0
2018-11-24 02:00,50.6304533333333,-96.98077,11.5,15.0,352,973.90,-3.5,100,1.00,0.0,1001.63,90.0
2018-11-24 02:10,50.6304566666667,-96.980765,11.8,16.4,350,973.97,-3.7,100,0.98,0.0,1001.71,90.0
2018-11-24 02:20,50.6304533333333,-96.9807633333333,10.2,13.5,347,974.06,-3.7,100,0.97,0.0,1001.82,90.0
2018-11-24 02:30,50.6304516666667,-96.9807616666667,8.6,13.5,338,974.15,-3.8,100,0.97,0.0,1001.93,90.0
2018-11-24 02:40,50.6304633333333,-96.9807633333333,8.5,13.1,336,974.23,-3.8,100,0.97,0.0,1002.02,90.0
2018-11-24 02:50,50.6304383333333,-96.9807566666667,8.5,12.9,319,974.28,-4.0,99,0.97,0.0,1002.09,90.0
2018-11-24 03:00,50.6304533333333,-96.98076,10.3,14.7,331,974.34,-4.2,100,0.98,0.0,1002.18,90.0
2018-11-24 03:10,50.630455,-96.9807666666667,9.7,12.6,323,974.44,-4.3,100,0.98,0.0,1002.29,90.0
2018-11-24 03:20,50.6304533333333,-96.9807666666667,9.0,13.3,317,974.59,-4.4,100,0.98,0.0,1002.46,90.0
2018-11-24 03:30,50.6304383333333,-96.9807633333333,8.3,13.0,324,974.69,-4.4,99,0.98,0.0,1002.57,90.0
2018-11-24 03:40,50.630445,-96.98076,8.6,13.2,331,974.76,-4.4,99,0.97,0.0,1002.64,90.0
2018-11-24 03:50,50.6304433333333,-96.9807616666667,11.6,16.3,332,974.75,-4.5,100,0.97,0.0,1002.65,90.0
2018-11-24 04:00,50.6304466666667,-96.9807683333333,8.5,15.1,329,974.97,-4.5,100,0.96,0.0,1002.89,167.4
2018-11-24 04:10,50.6304483333333,-96.9807683333333,8.4,13.0,331,975.07,-4.5,100,0.96,0.0,1003.00,167.4
2018-11-24 04:20,50.6304483333333,-96.9807683333333,8.0,12.7,329,975.11,-4.4,100,0.98,0.0,1003.04,167.4
2018-11-24 04:30,50.6304533333333,-96.98077,10.2,16.0,339,975.13,-4.4,100,0.98,0.0,1003.06,167.4
2018-11-24 04:40,50.630455,-96.98076,10.6,14.8,338,975.14,-4.4,100,0.98,0.0,1003.08,167.4
2018-11-24 04:50,50.6304533333333,-96.9807616666667,8.8,16.1,326,975.20,-4.4,100,0.97,0.0,1003.16,167.4
2018-11-24 05:00,50.6304533333333,-96.98076,10.9,16.9,335,975.25,-4.5,100,0.94,0.0,1003.21,90.0
2018-11-24 05:10,50.6304533333333,-96.9807616666667,9.5,13.7,333,975.39,-4.5,100,0.94,0.0,1003.36,90.0
2018-11-24 05:20,50.630455,-96.9807633333333,8.6,13.8,313,975.51,-4.7,100,0.95,0.0,1003.49,90.0
2018-11-24 05:30,50.630455,-96.9807616666667,8.8,11.9,317,975.52,-4.8,100,0.95,0.0,1003.51,90.0
2018-11-24 05:40,50.630455,-96.9807633333333,9.1,13.5,320,975.61,-4.9,100,0.95,0.0,1003.61,90.0
2018-11-24 05:50,50.6304416666667,-96.9807866666667,11.9,17.3,328,975.67,-5.0,100,0.96,0.0,1003.68,90.0
2018-11-24 06:00,50.630445,-96.9807766666667,11.2,16.0,327,975.85,-5.1,100,0.95,0.0,1003.88,216.6
2018-11-24 06:10,50.63045,-96.9807683333333,9.7,15.6,319,976.01,-5.3,100,0.94,0.0,1004.05,216.6
2018-11-24 06:20,50.63044,-96.980765,10.3,15.5,323,976.06,-5.4,100,0.94,0.0,1004.10,216.6
2018-11-24 06:30,50.6304416666667,-96.9807666666667,9.1,15.5,321,976.13,-5.5,100,0.94,0.0,1004.18,216.6
2018-11-24 06:40,50.6304383333333,-96.9807666666667,9.6,15.0,311,976.18,-5.5,100,0.94,0.0,1004.23,216.6
2018-11-24 06:50,50.6304383333333,-96.9807666666667,10.1,15.3,306,976.20,-5.5,100,0.93,0.0,1004.25,216.6
2018-11-24 07:00,50.63044,-96.9807666666667,11.3,18.3,324,976.20,-5.4,100,0.93,0.0,1004.25,142.0
2018-11-24 07:10,50.6304416666667,-96.9807683333333,11.1,15.3,337,976.28,-5.4,100,0.94,0.0,1004.34,142.0
2018-11-24 07:20,50.63045,-96.9807616666667,10.3,16.5,329,976.26,-5.4,100,0.94,0.0,1004.33,142.0
2018-11-24 07:30,50.63044,-96.9807683333333,10.0,18.2,326,976.36,-5.4,100,0.94,0.0,1004.43,142.0
2018-11-24 07:40,50.6304483333333,-96.98077,8.6,13.4,325,976.51,-5.4,100,0.96,0.0,1004.60,142.0
2018-11-24 07:50,50.6304483333333,-96.9807683333333,11.9,18.4,332,976.40,-5.4,100,0.96,0.0,1004.49,142.0
2018-11-24 08:00,50.6304516666667,-96.9807716666667,9.8,17.0,331,976.67,-5.4,100,0.96,0.0,1004.78,270.0
2018-11-24 08:10,50.6304733333333,-96.9807833333333,11.4,17.4,327,976.72,-5.5,100,0.95,0.0,1004.83,270.0
2018-11-24 08:20,50.6304683333333,-96.9807683333333,8.8,14.7,328,976.86,-5.5,100,0.95,0.0,1004.99,270.0
2018-11-24 08:30,50.63045,-96.980785,12.1,19.3,338,976.80,-5.6,100,0.94,0.0,1004.93,270.0
2018-11-24 08:40,50.630455,-96.9807583333333,11.2,18.3,339,976.99,-5.8,100,0.94,0.0,1005.14,270.0
2018-11-24 08:50,50.6304566666667,-96.9807466666667,13.3,18.3,344,977.03,-5.7,100,0.94,0.0,1005.17,270.0
2018-11-24 09:00,50.6304583333333,-96.980755,11.4,16.5,340,977.13,-5.6,100,0.94,0.0,1005.26,3.2
2018-11-24 09:10,50.6304566666667,-96.9807566666667,10.7,16.0,340,977.20,-5.5,100,0.94,0.0,1005.33,3.2
2018-11-24 09:20,50.6304616666667,-96.9807716666667,9.5,16.3,337,977.32,-5.5,100,0.94,0.0,1005.45,3.2
2018-11-24 09:30,50.63046,-96.980765,10.0,13.3,335,977.35,-5.5,100,0.95,0.0,1005.49,3.2
2018-11-24 09:40,50.6304616666667,-96.98077,6.1,9.8,324,977.45,-5.5,100,0.96,0.0,1005.60,3.2
2018-11-24 09:50,50.63047,-96.98078,7.5,10.9,324,977.46,-5.5,100,0.97,0.0,1005.60,3.2
2018-11-24 10:00,50.63046,-96.98078,7.8,12.9,329,977.49,-5.5,100,0.97,0.0,1005.63,318.8
2018-11-24 10:10,50.6304533333333,-96.9807883333333,7.9,11.5,322,977.54,-5.4,100,0.98,0.0,1005.68,318.8
2018-11-24 10:20,50.630455,-96.9807783333333,6.2,11.2,322,977.64,-5.3,100,0.98,0.0,1005.79,318.8
2018-11-24 10:30,50.63046,-96.9807733333333,8.4,12.6,326,977.63,-5.2,100,0.97,0.0,1005.78,318.8
2018-11-24 10:40,50.63046,-96.98077,7.8,13.3,328,977.68,-5.1,99,0.97,0.0,1005.82,318.8
2018-11-24 10:50,50.63046,-96.9807683333333,9.6,16.1,327,977.68,-5.1,99,0.97,0.0,1005.82,318.8
2018-11-24 11:00,50.6304366666667,-96.980745,11.0,15.5,332,977.70,-5.0,99,0.96,0.0,1005.83,137.0
2018-11-24 11:10,50.6304666666667,-96.9807666666667,8.9,12.6,332,977.86,-5.0,99,0.96,0.0,1005.99,137.0
2018-11-24 11:20,50.63046,-96.9807716666667,10.1,15.5,329,977.90,-5.0,99,0.97,0.0,1006.03,137.0
2018-11-24 11:30,50.63046,-96.980775,9.9,15.8,334,978.04,-5.0,99,0.97,0.0,1006.17,137.0
2018-11-24 11:40,50.6304566666667,-96.9807766666667,9.2,13.7,330,978.16,-5.0,98,0.98,0.0,1006.30,137.0
2018-11-24 11:50,50.6304583333333,-96.980775,9.9,14.1,328,978.25,-5.0,96,0.97,0.0,1006.39,137.0
2018-11-24 12:00,50.6304566666667,-96.980775,9.9,15.6,327,978.42,-5.0,93,0.95,0.0,1006.56,234.7
2018-11-24 12:10,50.6304566666667,-96.980775,9.7,15.3,331,978.64,-5.0,91,0.94,0.0,1006.78,234.7
2018-11-24 12:20,50.6304566666667,-96.980775,10.1,16.1,326,978.68,-5.1,91,0.95,0.0,1006.82,234.7
2018-11-24 12:30,50.6304466666667,-96.980775,10.8,15.5,330,978.74,-5.1,89,0.93,0.0,1006.88,234.7
2018-11-24 12:40,50.6304516666667,-96.9807616666667,11.3,16.6,332,978.84,-5.1,87,0.91,0.0,1006.98,234.7
2018-11-24 12:50,50.6304566666667,-96.98077,12.9,18.1,334,978.91,-5.1,84,0.91,0.0,1007.05,234.7
2018-11-24 13:00,50.6304566666667,-96.9807733333333,11.7,16.4,332,979.07,-5.2,85,0.92,0.0,1007.22,125.3
2018-11-24 13:10,50.6304533333333,-96.980765,12.2,17.2,335,979.18,-5.2,85,0.93,0.0,1007.34,125.3
2018-11-24 13:20,50.63045,-96.980765,12.9,18.0,337,979.22,-5.2,86,0.93,0.0,1007.37,125.3
2018-11-24 13:30,50.6304483333333,-96.9807666666667,12.0,16.1,340,979.39,-5.2,87,0.93,0.0,1007.54,125.3
2018-11-24 13:40,50.63044,-96.980785,10.5,14.4,336,979.55,-5.2,88,0.92,0.0,1007.72,125.3
2018-11-24 13:50,50.6304466666667,-96.9807783333333,10.8,15.1,332,979.65,-5.3,88,0.92,0.0,1007.82,125.3
2018-11-24 14:00,50.6304483333333,-96.9807716666667,9.4,12.9,333,979.82,-5.3,89,0.93,0.0,1008.00,302.3
2018-11-24 14:10,50.6304516666667,-96.9807666666667,8.6,11.9,333,979.93,-5.3,90,0.94,0.0,1008.11,302.3
2018-11-24 14:20,50.6304516666667,-96.9807683333333,9.1,13.8,323,979.97,-5.3,90,0.94,0.0,1008.15,302.3
2018-11-24 14:30,50.6304533333333,-96.9807683333333,9.6,15.5,321,980.05,-5.3,92,0.95,0.0,1008.24,302.3
2018-11-24 14:40,50.6304583333333,-96.9807683333333,12.8,19.6,327,980.06,-5.2,93,0.96,0.0,1008.25,302.3
2018-11-24 14:50,50.63046,-96.9807683333333,13.3,20.7,328,980.16,-5.2,92,0.96,0.0,1008.35,302.3
2018-11-24 15:00,50.6304566666667,-96.9807666666667,13.2,19.0,325,980.35,-5.2,92,0.96,0.0,1008.55,90.0
2018-11-24 15:10,50.6304566666667,-96.9807683333333,12.2,18.2,327,980.55,-5.3,93,0.96,0.0,1008.75,90.0
2018-11-24 15:20,50.6304566666667,-96.9807666666667,9.8,15.3,323,980.77,-5.3,94,0.97,0.0,1008.98,90.0
2018-11-24 15:30,50.6304833333333,-96.9807683333333,12.5,21.7,321,980.78,-5.4,93,0.97,0.0,1009.00,90.0
2018-11-24 15:40,50.63045,-96.980755,9.1,15.0,326,981.12,-5.4,95,0.97,0.0,1009.35,90.0
2018-11-24 15:50,50.630455,-96.9807666666667,11.0,15.8,328,981.18,-5.6,96,0.97,0.0,1009.43,90.0
2018-11-24 16:00,50.630455,-96.980765,12.1,17.9,320,981.17,-5.7,91,0.94,0.0,1009.42,90.0
2018-11-24 16:10,50.630455,-96.9807666666667,12.5,19.2,325,981.32,-5.8,88,0.93,0.0,1009.58,90.0
2018-11-24 16:20,50.630455,-96.980765,11.6,16.9,322,981.53,-6.0,87,0.94,0.0,1009.80,90.0
2018-11-24 16:30,50.630455,-96.980765,11.2,17.5,319,981.69,-6.0,86,0.95,0.0,1009.97,90.0
2018-11-24 16:40,50.630455,-96.980765,10.4,16.7,316,981.83,-6.1,86,0.92,0.0,1010.12,90.0
2018-11-24 16:50,50.63046,-96.9807716666667,9.3,13.6,326,982.12,-6.1,87,0.90,0.0,1010.42,90.0
2018-11-24 17:00,50.63045,-96.9807616666667,11.3,17.4,321,982.13,-6.2,87,0.90,0.0,1010.44,54.7
2018-11-24 17:10,50.6304633333333,-96.9807733333333,11.0,17.2,327,982.30,-6.3,86,0.90,0.0,1010.62,54.7
2018-11-24 17:20,50.6304566666667,-96.9807716666667,14.9,22.6,332,982.29,-6.4,80,0.91,0.0,1010.61,54.7
2018-11-24 17:30,50.630455,-96.9807683333333,14.3,20.0,336,982.47,-6.6,77,0.91,0.0,1010.81,54.7
2018-11-24 17:40,50.6304516666667,-96.9807666666667,14.4,20.0,335,982.56,-6.7,76,0.93,0.0,1010.92,54.7
2018-11-24 17:50,50.6304516666667,-96.9807666666667,11.1,17.6,328,982.81,-6.8,77,0.93,0.0,1011.19,54.7
2018-11-24 18:00,50.6304516666667,-96.9807683333333,13.4,18.1,339,982.90,-6.8,78,0.90,0.0,1011.29,90.0
2018-11-24 18:10,50.6304533333333,-96.9807683333333,11.7,16.8,327,982.90,-6.9,77,0.90,0.0,1011.30,90.0
2018-11-24 18:20,50.6304533333333,-96.98077,12.3,17.9,330,982.97,-6.9,76,0.91,0.0,1011.37,90.0
2018-11-24 18:30,50.6304533333333,-96.98077,12.4,17.8,332,983.08,-6.9,75,0.93,0.0,1011.49,90.0
2018-11-24 18:40,50.6304533333333,-96.98077,13.9,20.9,339,983.20,-6.9,76,0.94,0.0,1011.62,90.0
2018-11-24 18:50,50.6304533333333,-96.98077,11.7,18.6,334,983.39,-6.9,76,0.95,0.0,1011.82,90.0
2018-11-24 19:00,50.630455,-96.98077,12.7,19.8,332,983.45,-6.9,76,0.96,0.0,1011.88,0.0
2018-11-24 19:10,50.630455,-96.98077,10.7,16.8,341,983.61,-6.9,78,0.97,0.0,1012.05,0.0
2018-11-24 19:20,50.630455,-96.98077,9.9,13.9,320,983.65,-7.0,78,0.98,0.0,1012.11,0.0
2018-11-24 19:30,50.630455,-96.9807683333333,9.5,15.3,323,983.80,-7.0,80,0.98,0.0,1012.27,0.0
2018-11-24 19:40,50.630475,-96.9807716666667,12.4,19.3,327,983.77,-6.9,77,0.99,0.0,1012.24,0.0
2018-11-24 19:50,50.6304566666667,-96.9807566666667,12.1,19.8,324,983.83,-6.9,75,0.99,0.0,1012.31,0.0
2018-11-24 20:00,50.6304533333333,-96.9807633333333,11.1,16.2,317,983.94,-7.0,75,1.00,0.0,1012.43,270.0
2018-11-24 20:10,50.630455,-96.9807616666667,12.1,18.1,310,984.09,-7.1,76,1.01,0.0,1012.59,270.0
2018-11-24 20:20,50.630455,-96.9807616666667,12.4,17.6,312,984.29,-7.3,75,1.01,0.0,1012.80,270.0
2018-11-24 20:30,50.630455,-96.9807616666667,10.9,16.7,308,984.53,-7.4,76,1.01,0.0,1013.06,270.0
2018-11-24 20:40,50.6304533333333,-96.98076,11.9,19.2,321,984.63,-7.4,75,1.01,0.0,1013.16,270.0
2018-11-24 20:50,50.6304533333333,-96.9807616666667,9.0,14.0,321,984.92,-7.4,75,1.01,0.0,1013.46,270.0
2018-11-24 21:00,50.6304633333333,-96.9807733333333,11.7,17.3,316,985.02,-7.7,75,1.00,0.0,1013.57,345.5
2018-11-24 21:10,50.6304533333333,-96.9807566666667,12.6,17.8,315,985.16,-7.9,71,1.00,0.0,1013.74,345.5
2018-11-24 21:20,50.630455,-96.9807616666667,12.6,18.2,312,985.31,-7.7,68,0.97,0.0,1013.88,345.5
2018-11-24 21:30,50.630455,-96.9807633333333,10.0,16.1,315,985.61,-7.9,69,0.95,0.0,1014.20,345.5
2018-11-24 21:40,50.6304566666667,-96.980765,10.6,14.9,312,985.75,-8.2,70,0.94,0.0,1014.36,345.5
2018-11-24 21:50,50.6304583333333,-96.980765,9.4,14.1,312,985.98,-8.3,71,0.93,0.0,1014.60,345.5
2018-11-24 22:00,50.6304583333333,-96.980765,10.5,16.6,311,986.08,-8.3,70,0.94,0.0,1014.71,360.0
2018-11-24 22:10,50.6304583333333,-96.9807666666667,11.4,17.6,323,986.21,-8.4,71,0.94,0.0,1014.85,360.0
2018-11-24 22:20,50.6304516666667,-96.98077,11.6,18.1,314,986.38,-8.5,73,0.94,0.0,1015.06,360.0
2018-11-24 22:30,50.6304483333333,-96.9807666666667,10.6,16.3,315,986.72,-8.6,74,0.94,0.0,1015.41,360.0
2018-11-24 22:40,50.6304466666667,-96.980775,10.8,16.4,319,986.92,-8.7,75,0.94,0.0,1015.61,360.0
2018-11-24 22:50,50.630455,-96.9807716666667,10.2,15.5,317,987.11,-8.8,75,0.95,0.0,1015.84,360.0
2018-11-24 23:00,50.6304533333333,-96.98077,11.0,17.2,318,987.32,-8.9,76,0.96,0.0,1016.07,0.0
2018-11-24 23:10,50.6304516666667,-96.98077,11.2,16.2,312,987.50,-9.0,77,0.96,0.0,1016.24,0.0
2018-11-24 23:20,50.6304533333333,-96.9807683333333,10.7,15.8,318,987.67,-9.2,77,0.95,0.0,1016.44,0.0
2018-11-24 23:30,50.6304533333333,-96.9807683333333,11.0,17.9,313,987.80,-9.3,78,0.94,0.0,1016.60,0.0
2018-11-24 23:40,50.6304533333333,-96.9807683333333,10.8,15.7,320,987.98,-9.4,79,0.94,0.0,1016.79,0.0
2018-11-24 23:50,50.6304533333333,-96.98077,8.8,15.5,315,988.20,-9.5,79,0.93,0.0,1017.02,0.0
